MIR-SAT 1

Last updated on Wed Apr 20 2022 00:03:21 GMT+0000 (Coordinated Universal Time)

1 48868U 98067SP 22108.78104540 .11013202 12385-4 12548-2 0 9991 2 48868 51.6105 244.9572 0010639 304.5467 55.4553 16.35908112 46963

Satellite not in orbit